Weather History for EINN - August, 2012

Change the Weather History Date:

Saturday, August 25, 2012

  Actual Average Record
Temperature  
Mean Temperature 59 °F -  
Max Temperature 65 °F 64 °F 71 °F (1999)
Min Temperature 53 °F 50 °F 44 °F (2010)
Degree Days  
Heating Degree Days 6    
Growing Degree Days 9 (Base 50)    
Moisture  
Dew Point 54 °F    
Average Humidity 85    
Maximum Humidity 100    
Minimum Humidity 64    
Precipitation  
Precipitation 0.02 in 0.11 in - ()
Sea Level Pressure  
Sea Level Pressure 29.70 in    
Wind  
Wind Speed 10 mph ()    
Max Wind Speed 20 mph    
Max Gust Speed -    
Visibility 6.6 miles    
Events Rain    
Averages and records for this station are not official NWS values.
T = Trace of Precipitation, MM = Missing Value Source: Averaged Metar Reports

Daily Weather History Graph

Daily Weather History Graph

Search for Another Location

Airport or City:

Trip Planner

Search our weather history database for the weather conditions in past years. The results will help you decide how hot, cold, wet, or windy it might be!

Date:

Astronomy

Aug. 25, 2012 Rise Set
Actual Time 6:35 AM IST 8:39 PM IST
Civil Twilight 5:58 AM IST 9:15 PM IST
Nautical Twilight 5:11 AM IST 10:02 PM IST
Astronomical Twilight 4:17 AM IST 10:54 PM IST
Moon 4:26 PM IST (8/25) No Moon Set
Length of Visible Light 15h 17m
Length of Day
14h 04m
First Quarter, 60% of the Moon is Illuminated
Aug 25
First Quarter
Aug 31
Full
Sep 8
Last Quarter
Sep 16
New
Sep 22
First Quarter

Hourly Weather History & Observations

Time (IST) Temp. Dew Point Humidity Pressure Visibility Wind Dir Wind Speed Gust Speed Precip Events Conditions
12:00 AM 57.2 °F 55.4 °F 94% 29.50 in 6.2 mi North 10.4 mph - N/A   Mostly Cloudy
12:30 AM 57.2 °F 55.4 °F 94% 29.50 in 6.2 mi North 8.1 mph - N/A   Mostly Cloudy
1:00 AM 57 °F 55 °F 92% 29.52 in 16 mi NNW 6.7 mph - -   Partly Cloudy
1:00 AM 57.2 °F 55.4 °F 94% 29.50 in 6.2 mi NNW 6.9 mph - N/A   Mostly Cloudy
1:30 AM 57.2 °F 55.4 °F 94% 29.50 in 6.2 mi North 9.2 mph - N/A   Mostly Cloudy
2:00 AM 55.4 °F 55.4 °F 100% 29.53 in 6.2 mi North 9.2 mph - N/A   Light Drizzle
2:30 AM 55.4 °F 55.4 °F 100% 29.53 in 6.2 mi NNW 9.2 mph - N/A   Light Drizzle
3:00 AM 55.4 °F 53.6 °F 94% 29.53 in 6.2 mi North 10.4 mph - N/A   Mostly Cloudy
3:30 AM 55.4 °F 53.6 °F 94% 29.53 in 6.2 mi NNW 10.4 mph - N/A   Mostly Cloudy
4:00 AM 57.2 °F 55.4 °F 94% 29.56 in 6.2 mi NNW 9.2 mph - N/A   Mostly Cloudy
4:30 AM 57.2 °F 55.4 °F 94% 29.56 in 6.2 mi NNW 11.5 mph - N/A   Mostly Cloudy
5:00 AM 57.2 °F 55.4 °F 94% 29.56 in 6.2 mi NNW 8.1 mph - N/A   Mostly Cloudy
5:30 AM 57.2 °F 55.4 °F 94% 29.56 in 6.2 mi NNW 9.2 mph - N/A   Mostly Cloudy
6:00 AM 57.2 °F 55.4 °F 94% 29.59 in 6.2 mi NNW 9.2 mph - N/A   Mostly Cloudy
6:30 AM 57.2 °F 55.4 °F 94% 29.59 in 6.2 mi NNW 6.9 mph - N/A   Mostly Cloudy
7:00 AM 56 °F 55 °F 96% 29.62 in 16 mi NW 8.9 mph - -   Partly Cloudy
7:00 AM 57.2 °F 55.4 °F 94% 29.62 in 6.2 mi NW 9.2 mph - N/A   Mostly Cloudy
7:30 AM 57.2 °F 55.4 °F 94% 29.62 in 6.2 mi NW 8.1 mph - N/A   Mostly Cloudy
8:00 AM 57.2 °F 55.4 °F 94% 29.62 in 6.2 mi WNW 9.2 mph - N/A   Mostly Cloudy
8:30 AM 57.2 °F 55.4 °F 94% 29.65 in 6.2 mi WNW 8.1 mph - N/A   Mostly Cloudy
9:00 AM 59.0 °F 57.2 °F 94% 29.65 in 6.2 mi NW 9.2 mph - N/A   Mostly Cloudy
9:30 AM 59.0 °F 55.4 °F 88% 29.68 in 6.2 mi NW 12.7 mph - N/A   Mostly Cloudy
10:00 AM 59.0 °F 55.4 °F 88% 29.68 in 6.2 mi NW 12.7 mph - N/A   Mostly Cloudy
10:30 AM 60.8 °F 55.4 °F 82% 29.68 in 6.2 mi NW 11.5 mph - N/A   Mostly Cloudy
11:00 AM 60.8 °F 55.4 °F 82% 29.68 in 6.2 mi WNW 10.4 mph - N/A   Mostly Cloudy
11:30 AM 60.8 °F 53.6 °F 77% 29.71 in 6.2 mi NNW 11.5 mph - N/A   Mostly Cloudy
12:00 PM 62.6 °F 57.2 °F 82% 29.71 in 6.2 mi NW 13.8 mph - N/A Rain Light Rain Showers
12:30 PM 59.0 °F 57.2 °F 94% 29.74 in 6.2 mi NW 11.5 mph - N/A   Mostly Cloudy
1:00 PM 61 °F 57 °F 81% 29.75 in 22 mi NW 11.2 mph - - Rain Light Rain Showers
1:00 PM 60.8 °F 57.2 °F 88% 29.74 in 6.2 mi NW 11.5 mph - N/A   Mostly Cloudy
1:30 PM 62.6 °F 57.2 °F 82% 29.74 in 6.2 mi NW 10.4 mph - N/A   Partly Cloudy
2:00 PM 64.4 °F 55.4 °F 73% 29.74 in 6.2 mi WNW 11.5 mph - N/A   Mostly Cloudy
2:30 PM 62.6 °F 53.6 °F 72% 29.77 in 6.2 mi WNW 13.8 mph - N/A   Mostly Cloudy
3:00 PM 64.4 °F 55.4 °F 73% 29.77 in 6.2 mi West 17.3 mph - N/A   Mostly Cloudy
3:30 PM 64.4 °F 53.6 °F 68% 29.77 in 6.2 mi West 19.6 mph - N/A   Scattered Clouds
4:00 PM 64.4 °F 53.6 °F 68% 29.80 in 6.2 mi West 18.4 mph - N/A   Scattered Clouds
4:30 PM 62.6 °F 51.8 °F 68% 29.80 in 6.2 mi WNW 17.3 mph - N/A   Partly Cloudy
5:00 PM 62.6 °F 53.6 °F 72% 29.80 in 6.2 mi West 17.3 mph - N/A   Partly Cloudy
5:30 PM 62.6 °F 53.6 °F 72% 29.80 in 6.2 mi WNW 17.3 mph - N/A   Partly Cloudy
6:00 PM 62.6 °F 51.8 °F 68% 29.83 in 6.2 mi WNW 18.4 mph - N/A   Partly Cloudy
6:30 PM 62.6 °F 51.8 °F 68% 29.83 in 6.2 mi WNW 17.3 mph - N/A   Partly Cloudy
7:00 PM 61 °F 52 °F 64% 29.85 in 31 mi WNW 17.9 mph - -   Partly Cloudy
7:00 PM 60.8 °F 51.8 °F 72% 29.83 in 6.2 mi WNW 17.3 mph - N/A   Partly Cloudy
7:30 PM 60.8 °F 51.8 °F 72% 29.86 in 6.2 mi WNW 16.1 mph - N/A   Partly Cloudy
8:00 PM 59.0 °F 51.8 °F 77% 29.86 in 6.2 mi West 12.7 mph - N/A   Partly Cloudy
8:30 PM 57.2 °F 51.8 °F 82% 29.86 in 6.2 mi West 10.4 mph - N/A   Partly Cloudy
9:00 PM 57.2 °F 51.8 °F 82% 29.89 in 6.2 mi West 9.2 mph - N/A   Partly Cloudy
9:30 PM 55.4 °F 51.8 °F 88% 29.89 in 6.2 mi West 9.2 mph - N/A   Partly Cloudy
10:00 PM 55.4 °F 51.8 °F 88% 29.92 in 6.2 mi West 9.2 mph - N/A   Partly Cloudy
10:30 PM 55.4 °F 50.0 °F 82% 29.92 in 6.2 mi West 8.1 mph - N/A   Partly Cloudy
11:00 PM 53.6 °F 50.0 °F 88% 29.92 in 6.2 mi West 9.2 mph - N/A   Partly Cloudy
11:30 PM 53.6 °F 50.0 °F 88% 29.92 in 6.2 mi WNW 4.6 mph - N/A   Partly Cloudy